This is the latest recevied weather packets stored in our database for station/object AB8Y-13. If no packets are shown the sender has not sent any weather packets the latest 10 day(s).
| Time | Temp. | Humidity | Pressure | Rain* | Wind** | Luminosity | Snow |
|---|---|---|---|---|---|---|---|
| 1777768821 | 6.67° C | 52% | 1015.3 hPa | 0 mm | - | 3 W/m² | - |
| 1777768517 | 7.22° C | 52% | 1015.4 hPa | 0 mm | - | 5 W/m² | - |
| 1777768214 | 6.67° C | 47% | 1015.1 hPa | 0 mm | - | 7 W/m² | - |
| 1777767911 | 7.22° C | 48% | 1015.2 hPa | 0 mm | - | 10 W/m² | - |
| 1777767608 | 7.22° C | 48% | 1015.2 hPa | 0 mm | - | 13 W/m² | - |
| 1777767304 | 7.78° C | 47% | 1015.5 hPa | 0 mm | - | 17 W/m² | - |
| 1777767002 | 7.78° C | 45% | 1015.2 hPa | 0 mm | - | 20 W/m² | - |
| 1777766699 | 7.78° C | 45% | 1015.3 hPa | 0 mm | - | 23 W/m² | - |
| 1777766396 | 7.78° C | 44% | 1015.2 hPa | 0 mm | - | 27 W/m² | - |
| 1777766093 | 8.33° C | 44% | 1015.3 hPa | 0 mm | - | 29 W/m² | - |
| 1777765790 | 8.89° C | 40% | 1015.3 hPa | 0 mm | - | 32 W/m² | - |
| 1777765486 | 9.44° C | 36% | 1015.2 hPa | 0 mm | - | 36 W/m² | - |
| 1777765184 | 10° C | 41% | 1015.3 hPa | 0 mm | - | 43 W/m² | - |
| 1777764879 | 10° C | 37% | 1015.4 hPa | 0 mm | - | 62 W/m² | - |
| 1777764576 | 10° C | 37% | 1015.2 hPa | 0 mm | - | 83 W/m² | - |
| 1777764272 | 9.44° C | 38% | 1015.6 hPa | 0 mm | - | 75 W/m² | - |
| 1777763970 | 9.44° C | 40% | 1015.4 hPa | 0 mm | - | 79 W/m² | - |
| 1777763667 | 8.89° C | 39% | 1015.4 hPa | 0 mm | - | 84 W/m² | - |
| 1777763365 | 8.33° C | 41% | 1015.4 hPa | 0 mm | - | 61 W/m² | - |
| 1777763063 | 8.33° C | 41% | 1015.6 hPa | 0 mm | - | 66 W/m² | - |
| 1777762761 | 8.89° C | 46% | 1015.6 hPa | 0 mm | - | 63 W/m² | - |
| 1777762456 | 8.89° C | 41% | 1015.7 hPa | 0 mm | - | 64 W/m² | - |
| 1777762153 | 9.44° C | 39% | 1015.7 hPa | 0 mm | - | 58 W/m² | - |
| 1777761849 | 10° C | 35% | 1015.5 hPa | 0 mm | - | 70 W/m² | - |
| 1777761546 | 10.56° C | 33% | 1015.5 hPa | 0 mm | - | 81 W/m² | - |
* Rain latest hour (hover to see other rain measurements)
** Current wind speed in m/s (hover to see current wind gust speed)